Wind_Speed
16 15 15 15 15 15 14 15 16 16 16 16 17 18 18 18 19 20 21 21 21 22 22 23 24 24 24 25 25 25 25 25 26 27 27 28 28 28 28 29 28 28 28
18 17 17 17 17 17 17 17 17 17 17 18 19 20 20 20 21 21 21 22 22 23 23 24 24 24 25 25 26 27 28 28 28 28 28 29 30 31 31 31 31 30 30
19 19 19 18 19 19 19 19 19 20 20 20 21 21 21 21 21 22 22 22 23 23 23 23 24 25 25 26 26 27 29 29 29 29 30 31 31 32 32 33 33 32 32
20 20 20 20 20 20 20 20 20 21 21 20 22 22 23 23 23 23 23 24 24 24 23 23 24 24 25 26 27 27 28 29 30 30 31 32 32 33 33 34 34 33 33
22 22 21 21 21 21 22 21 21 22 22 22 23 24 24 23 24 24 25 25 25 25 25 25 25 26 27 27 28 28 29 29 30 31 31 32 32 33 33 34 34 34 34
23 23 23 22 23 23 23 22 22 23 24 25 25 24 24 25 25 25 26 26 26 26 27 27 27 27 28 28 29 30 30 30 31 31 31 31 31 32 33 34 35 35 34
24 24 24 24 24 24 24 23 24 25 26 25 25 25 25 25 25 26 26 26 27 27 28 28 28 29 29 30 30 30 31 31 31 30 30 30 30 30 31 32 33 33 33
25 25 25 25 25 25 25 26 26 26 26 26 25 25 25 25 26 27 27 28 28 28 29 29 29 29 29 30 30 31 30 30 30 30 30 30 30 30 30 31 32 32 32
25 25 25 26 26 26 27 27 27 27 27 26 27 26 26 27 28 28 29 29 29 29 29 29 29 30 29 29 30 31 31 30 30 29 29 29 29 29 29 29 30 31 31
25 25 26 26 27 27 27 27 28 28 28 28 27 27 27 28 28 29 29 29 29 29 29 29 29 29 29 29 30 31 31 30 30 30 29 29 28 28 28 28 28 29 30
26 27 27 27 28 27 27 27 28 29 28 28 28 28 28 28 29 29 29 29 29 29 30 30 30 30 29 30 30 31 31 30 30 30 29 29 29 28 28 28 28 29 30
27 28 28 28 28 27 27 28 29 28 28 28 28 28 28 28 28 29 29 29 29 30 30 30 30 30 29 30 30 31 31 31 30 31 29 28 28 28 27 27 28 28 28
28 28 27 28 28 28 29 29 29 29 28 28 28 28 28 28 28 29 29 29 30 30 30 31 31 30 30 30 31 31 31 31 31 30 29 28 28 28 27 27 27 28 28
29 29 28 28 29 29 29 29 30 29 28 28 28 27 27 27 28 29 29 29 29 30 30 31 30 30 30 31 30 30 30 29 29 29 28 27 27 27 27 27 27 27 27
28 28 27 27 27 28 28 29 29 29 28 28 28 28 27 27 27 28 28 29 29 30 30 30 30 30 30 30 30 29 28 28 27 27 25 25 25 26 27 26 25 25 25
27 28 28 27 27 27 27 27 27 26 27 27 28 27 27 27 28 28 28 29 29 30 30 30 30 30 29 28 28 28 27 26 26 25 25 25 25 25 25 25 24 23 23
27 27 26 26 26 26 26 25 25 25 26 27 27 27 28 28 28 28 28 29 30 30 30 29 29 29 28 27 27 26 25 26 25 25 25 24 24 24 23 23 23 23 23
25 25 25 25 25 25 25 25 25 25 26 26 27 27 27 28 28 28 27 28 28 29 29 29 28 28 27 26 25 25 25 24 24 24 23 23 23 23 22 22 22 22 23
23 23 24 25 25 25 25 24 24 25 26 26 26 26 26 26 27 27 27 27 27 27 28 28 27 27 26 25 24 24 23 23 23 22 21 21 22 22 22 22 22 21 21
23 24 25 25 25 25 25 24 24 25 25 25 25 25 25 25 26 26 27 26 26 27 26 26 26 25 25 24 23 23 22 23 22 21 21 20 20 21 20 20 20 20 21
23 24 24 25 25 25 24 23 23 24 24 25 24 24 24 24 25 25 26 26 26 26 25 25 25 24 23 22 22 22 21 21 21 21 21 21 21 20 20 20 19 20 20
24 24 24 25 24 24 24 23 23 23 23 24 24 24 24 24 24 24 24 24 25 24 24 24 24 24 23 22 21 21 21 21 20 20 21 21 20 20 20 20 20 19 19
25 25 24 24 23 23 24 23 23 23 25 24 24 24 23 23 24 24 24 24 24 23 23 24 24 23 22 21 21 21 21 21 20 20 20 20 20 19 20 19 19 18 18
24 25 24 24 24 24 24 24 25 25 25 25 24 24 24 24 24 24 24 24 24 24 24 23 23 23 22 21 21 21 21 21 21 20 20 20 19 19 19 18 18 18 18
25 25 25 24 24 24 24 24 25 25 26 25 25 25 25 25 25 25 24 24 24 23 23 23 23 23 23 22 22 21 20 21 21 21 20 20 19 19 18 18 18 17 17
24 24 24 24 24 25 25 25 25 25 25 25 25 25 25 26 26 25 24 24 24 23 24 24 24 24 23 23 22 21 20 20 20 20 19 19 18 18 17 17 16 16 16
Wind_Direction
318 318 317 315 313 309 307 310 310 307 305 305 306 306 305 302 299 297 297 299 298 296 294 291 289 286 284 282 281 280 280 278 276 274 272 271 270 270 269 269 267 267 267
314 314 313 311 311 308 305 304 305 305 306 307 307 307 306 305 303 301 301 300 299 298 296 293 291 288 286 284 282 281 280 278 277 276 274 272 271 270 269 269 267 266 265
309 309 309 308 308 306 304 302 303 304 304 305 306 307 306 304 304 304 304 302 301 301 299 296 294 291 289 287 285 283 282 280 277 276 274 274 272 270 268 267 266 266 265
306 305 305 305 304 304 303 303 302 302 302 303 305 304 304 303 302 303 303 302 301 301 300 298 296 294 292 291 289 287 285 283 280 278 275 274 272 270 268 266 266 265 265
304 303 303 303 302 302 303 303 302 302 302 301 302 303 302 301 300 301 302 301 301 300 299 298 296 294 293 291 290 288 286 284 283 282 279 277 274 271 269 267 265 265 265
302 302 302 301 301 300 302 301 301 301 301 300 300 300 300 300 301 302 301 300 300 299 298 297 296 294 293 292 291 289 287 285 284 282 280 278 276 273 271 268 266 265 264
301 301 302 301 300 300 300 299 299 299 300 301 299 299 301 302 301 302 301 300 300 299 299 298 297 296 295 293 292 291 289 287 285 284 282 280 277 275 272 269 268 267 265
300 300 300 301 300 300 299 299 299 299 299 299 300 302 301 299 300 300 299 299 299 299 299 297 297 297 297 294 293 292 291 289 287 285 283 282 279 278 276 271 269 268 266
300 300 300 299 298 298 298 297 298 298 299 299 301 301 300 300 300 300 300 301 300 299 298 298 297 297 296 294 294 293 292 291 289 287 286 285 283 281 279 274 271 270 267
300 299 298 298 297 298 298 298 298 299 299 301 302 302 300 299 299 300 301 301 301 299 300 300 299 298 297 296 295 294 293 292 290 289 288 286 284 281 278 276 275 273 269
299 298 297 297 297 298 299 299 300 300 298 299 300 300 301 300 299 298 299 300 300 302 303 303 302 300 298 297 296 296 295 293 291 291 287 284 284 281 279 279 277 276 271
299 298 297 298 298 299 298 299 299 300 299 299 299 299 300 301 301 301 299 299 300 302 302 303 302 300 299 298 296 295 294 294 292 292 290 286 282 280 280 280 279 277 273
299 299 298 297 298 297 298 299 299 299 299 298 297 298 299 300 301 300 299 299 301 303 303 303 302 301 301 299 297 294 293 292 292 291 290 287 284 280 279 279 279 276 273
300 299 297 296 297 298 299 299 298 298 298 298 298 299 299 300 300 300 300 299 302 305 305 304 302 301 301 301 298 296 293 292 292 291 288 285 283 281 280 280 279 276 274
300 300 300 301 302 300 300 299 298 297 297 298 299 300 299 300 300 300 301 300 302 304 306 305 303 302 301 300 298 296 294 292 292 291 288 285 283 283 283 282 279 276 273
302 304 304 304 303 303 302 301 300 300 300 300 300 301 302 301 300 301 301 301 302 304 306 306 304 304 303 302 299 297 295 294 294 291 290 289 286 283 282 280 279 277 273
304 305 305 304 304 304 303 301 301 302 302 300 300 302 303 304 303 302 302 302 303 305 306 306 306 306 304 302 301 298 296 296 295 294 292 290 288 285 282 280 277 278 273
305 305 306 307 306 306 305 303 302 303 303 302 302 303 304 304 305 304 304 305 306 307 307 308 308 307 305 303 301 300 299 298 297 297 295 292 290 286 284 281 279 277 273
305 306 308 309 309 308 307 304 303 304 304 304 304 304 305 304 305 306 306 307 308 309 309 310 309 307 305 304 303 301 300 300 298 297 296 294 291 288 285 282 281 278 274
304 305 308 309 310 310 308 307 306 307 308 307 306 306 305 306 306 307 306 307 308 310 310 311 311 309 307 305 305 304 303 301 299 297 296 295 293 291 288 284 281 278 276
303 305 307 308 308 309 309 309 309 309 309 310 309 308 307 307 308 308 309 309 309 310 311 311 311 311 309 307 306 306 305 304 301 298 296 296 296 293 290 287 283 279 278
304 305 305 306 307 307 309 309 310 311 311 311 312 312 310 309 310 310 310 310 311 311 312 312 312 312 310 308 307 307 306 305 302 300 298 296 295 294 291 288 283 279 277
301 303 304 304 306 306 307 308 308 309 309 310 311 313 313 312 312 312 312 311 310 311 312 312 312 312 310 309 308 307 307 308 306 302 300 298 295 293 290 288 284 278 276
301 302 303 305 305 306 306 306 307 307 307 308 311 312 313 313 312 312 312 312 312 312 312 313 313 312 311 310 310 310 308 307 307 305 303 301 298 294 291 288 284 279 275
299 300 301 303 305 305 305 305 305 305 306 307 309 310 310 310 310 310 310 311 312 313 314 315 315 313 311 310 310 310 308 309 309 307 305 303 300 296 293 289 286 280 275
299 300 301 303 304 304 304 305 305 304 305 306 307 308 309 310 311 311 310 310 312 314 314 315 315 313 312 310 309 309 308 308 308 306 306 303 300 298 295 291 287 282 278
Height
5869 5867 5865 5863 5860 5858 5856 5854 5853 5850 5848 5846 5844 5841 5839 5837 5835 5833 5831 5829 5827 5825 5822 5820 5819 5817 5815 5813 5811 5810 5809 5808 5807 5806 5805 5804 5803 5802 5802 5802 5802 5801 5801
5865 5863 5861 5859 5856 5854 5852 5850 5848 5845 5843 5841 5839 5836 5834 5831 5829 5827 5824 5822 5820 5818 5816 5814 5811 5809 5807 5805 5804 5802 5801 5800 5799 5798 5797 5795 5795 5794 5793 5793 5793 5793 5793
5860 5858 5856 5854 5852 5849 5847 5845 5843 5840 5838 5835 5833 5830 5828 5826 5823 5821 5818 5816 5814 5811 5809 5806 5804 5802 5800 5797 5795 5794 5792 5790 5789 5788 5787 5786 5785 5784 5784 5783 5783 5783 5783
5855 5853 5851 5849 5847 5844 5842 5839 5837 5834 5832 5829 5827 5825 5822 5819 5817 5814 5812 5810 5807 5804 5802 5799 5796 5794 5792 5790 5787 5785 5783 5781 5780 5778 5777 5776 5775 5774 5774 5773 5773 5773 5773
5850 5848 5845 5843 5841 5839 5836 5834 5831 5828 5825 5823 5821 5818 5816 5813 5810 5807 5805 5802 5800 5797 5794 5791 5789 5786 5783 5781 5779 5776 5774 5772 5770 5769 5767 5766 5765 5764 5763 5763 5763 5763 5763
5844 5842 5839 5837 5835 5832 5830 5828 5825 5823 5820 5817 5814 5812 5809 5806 5803 5800 5798 5795 5792 5789 5787 5784 5781 5778 5775 5772 5769 5767 5764 5762 5761 5759 5757 5756 5754 5753 5753 5752 5752 5753 5754
5838 5835 5833 5831 5828 5826 5824 5822 5819 5816 5813 5810 5807 5805 5802 5799 5796 5793 5790 5787 5784 5781 5778 5775 5772 5769 5766 5763 5760 5757 5755 5752 5750 5749 5747 5746 5744 5743 5742 5741 5741 5741 5742
5831 5828 5826 5824 5821 5819 5817 5814 5812 5809 5806 5803 5800 5797 5795 5792 5789 5786 5783 5780 5777 5774 5770 5767 5764 5760 5757 5754 5751 5748 5744 5742 5740 5739 5737 5736 5734 5732 5731 5730 5730 5731 5732
5824 5822 5819 5817 5814 5812 5809 5806 5804 5801 5799 5795 5793 5790 5788 5785 5782 5779 5775 5772 5769 5765 5762 5758 5755 5751 5748 5745 5742 5739 5736 5733 5731 5729 5727 5726 5724 5722 5721 5721 5721 5721 5721
5817 5815 5812 5809 5807 5804 5801 5799 5796 5793 5791 5788 5785 5782 5780 5777 5774 5771 5767 5764 5761 5757 5753 5749 5746 5743 5739 5736 5733 5730 5727 5724 5721 5719 5718 5716 5714 5713 5712 5711 5711 5710 5710
5810 5807 5804 5802 5799 5796 5793 5790 5788 5785 5783 5780 5777 5774 5772 5769 5765 5762 5759 5755 5752 5748 5745 5741 5738 5734 5731 5727 5724 5721 5718 5715 5712 5710 5708 5707 5705 5704 5703 5702 5701 5701 5700
5802 5799 5796 5794 5791 5788 5785 5782 5780 5777 5774 5771 5769 5766 5763 5760 5757 5753 5750 5747 5743 5740 5737 5733 5729 5725 5722 5718 5715 5712 5709 5706 5704 5701 5700 5698 5696 5695 5694 5693 5692 5691 5691
5794 5791 5788 5786 5783 5780 5777 5774 5772 5769 5765 5763 5760 5757 5755 5751 5748 5745 5742 5738 5735 5732 5728 5724 5721 5717 5713 5709 5706 5703 5700 5697 5695 5693 5691 5689 5687 5686 5684 5684 5683 5682 5681
5786 5783 5780 5778 5775 5772 5769 5766 5763 5760 5757 5755 5752 5749 5746 5743 5740 5737 5733 5730 5727 5723 5719 5716 5712 5708 5704 5701 5697 5694 5691 5688 5686 5684 5682 5680 5678 5676 5675 5674 5673 5672 5672
5779 5776 5772 5769 5766 5763 5760 5757 5754 5752 5749 5746 5744 5741 5738 5735 5732 5729 5725 5722 5719 5715 5711 5707 5703 5700 5696 5692 5688 5685 5682 5680 5677 5675 5673 5671 5669 5668 5666 5665 5664 5663 5663
5772 5769 5765 5762 5758 5755 5752 5749 5746 5744 5741 5738 5736 5733 5730 5727 5724 5721 5717 5714 5710 5707 5703 5699 5695 5691 5688 5684 5681 5677 5674 5672 5669 5667 5665 5663 5661 5660 5658 5657 5656 5655 5655
5765 5762 5758 5755 5752 5748 5745 5741 5739 5736 5734 5731 5728 5726 5723 5719 5716 5713 5709 5706 5702 5699 5695 5691 5687 5683 5680 5676 5673 5670 5667 5664 5662 5659 5657 5655 5653 5652 5650 5649 5648 5647 5647
5758 5755 5751 5748 5745 5742 5739 5735 5732 5729 5727 5724 5721 5718 5715 5712 5708 5705 5702 5698 5694 5690 5687 5683 5679 5676 5672 5669 5666 5663 5660 5657 5655 5652 5650 5648 5646 5644 5643 5642 5641 5640 5639
5752 5749 5745 5742 5738 5735 5732 5729 5726 5723 5720 5717 5714 5710 5707 5704 5701 5698 5694 5690 5687 5683 5679 5676 5672 5668 5665 5661 5659 5656 5653 5651 5648 5646 5643 5641 5639 5637 5636 5635 5634 5632 5632
5746 5743 5739 5736 5732 5729 5725 5722 5719 5716 5713 5710 5707 5703 5700 5697 5694 5690 5687 5683 5680 5676 5672 5669 5665 5661 5658 5654 5652 5649 5646 5644 5641 5639 5636 5634 5632 5630 5629 5627 5626 5625 5625
5740 5736 5733 5730 5726 5723 5720 5716 5713 5710 5706 5703 5700 5697 5693 5690 5687 5683 5680 5676 5673 5669 5666 5662 5658 5655 5651 5648 5645 5643 5640 5637 5634 5632 5630 5628 5625 5624 5622 5621 5619 5619 5618
5733 5730 5727 5724 5720 5717 5713 5710 5707 5704 5700 5697 5694 5690 5687 5683 5680 5677 5673 5670 5666 5662 5659 5656 5652 5649 5645 5642 5639 5636 5634 5631 5628 5626 5623 5621 5619 5617 5615 5614 5613 5612 5611
5727 5724 5720 5717 5714 5710 5707 5704 5701 5698 5694 5691 5688 5684 5681 5677 5674 5671 5667 5664 5660 5656 5653 5650 5646 5643 5640 5637 5634 5631 5628 5625 5622 5619 5617 5615 5613 5611 5609 5607 5606 5605 5605
5720 5717 5714 5710 5707 5704 5701 5698 5695 5691 5688 5685 5681 5678 5675 5671 5668 5664 5661 5657 5654 5650 5647 5644 5640 5637 5634 5631 5628 5625 5622 5619 5616 5613 5611 5608 5606 5604 5602 5601 5600 5599 5598
5712 5710 5706 5703 5700 5697 5694 5691 5688 5685 5681 5678 5675 5672 5668 5665 5662 5658 5655 5651 5648 5645 5642 5638 5635 5632 5628 5625 5622 5619 5616 5613 5610 5607 5605 5602 5600 5598 5596 5595 5594 5593 5592
5705 5702 5699 5696 5694 5691 5688 5684 5681 5678 5675 5671 5668 5665 5662 5658 5655 5652 5649 5645 5642 5639 5636 5633 5629 5626 5622 5619 5616 5613 5610 5607 5604 5601 5599 5596 5594 5592 5590 5589 5588 5587 5586